Location: Pedholt
(56.0260°N, 10.2097°E)
Time: 22:18:54
(UTC+00:00)

SR - Pass Details

Date: 01 August 2021
Orbit: 581 x 874 km, 66.7° (Epoch: 26 September)

Event Time Altitude Azimuth Distance (km) Brightness Sun altitude
Rises 03:50:02 0° 150° (SSE) 3,425 ? 2.3°
Reaches altitude 10° 03:55:05 10° 112° (ESE) 2,444 ? 2.9°
Maximum altitude 03:56:00 10° 103° (ESE) 2,405 ? 3.1°
Drops below altitude 10° 03:56:54 10° 93° (E) 2,422 ? 3.2°
Sets 04:01:45 0° 55° (NE) 3,280 ? 3.8°
